User: anonymous   Login
Location: Unspecified
(0.0000°N, 0.0000°E)
Time: 09:12:03
(UTC+00:00)
Language:

Orbcomm F1 (FM01) - Orbit

View from above orbital plane
View from above orbital plane
View from above satellite
View from above satellite

Ground track
Ground track

The orbit data is extracted from the following two-line orbital elements,

1 23545U 95017A   17086.63108239 +.00000534 +00000-0 +99491-4 0  9993
2 23545 069.9703 177.3937 0002905 082.0051 278.1423 14.70674791170184
Epoch (UTC): 27 March 2017 15:08:45
Eccentricity: 0.0002905
inclination: 69.9703°
perigee height: 657 km
apogee height: 661 km
right ascension of ascending node: 177.3937°
argument of perigee: 82.0051°
revolutions per day: 14.70674791
mean anomaly at epoch: 278.1423°
orbit number at epoch: 17018

The dashed part of the orbit path shows where the satellite is in the earth's shadow,  

DLR